Theta_e
281 280 279 279 279 278 278 277 276 276 275 274 273 273 272 272 270 270 271 271 272 274 275 276 277 278 280 281 282 282 283 284
280 280 279 279 277 277 277 276 275 275 274 272 272 272 271 270 269 269 270 271 272 273 275 276 276 278 281 280 280 282 282 284
279 278 278 277 276 276 276 275 274 273 272 272 271 270 269 268 268 269 269 270 272 273 274 275 276 278 279 279 280 281 281 282
278 277 277 276 275 274 274 273 273 271 270 270 269 268 267 266 267 267 267 268 271 272 273 273 275 278 279 280 280 281 281 282
278 277 277 276 274 272 273 272 271 270 268 268 267 266 265 264 262 263 265 268 268 270 271 272 274 279 280 279 280 280 281 282
278 277 276 275 273 272 271 271 269 267 264 262 264 263 261 259 259 260 262 264 265 268 269 271 275 279 280 279 279 279 279 281
279 278 277 275 271 270 267 267 267 262 257 257 258 259 257 255 257 259 261 262 263 265 268 270 274 281 282 279 278 278 278 279
279 278 277 274 271 265 263 266 262 259 254 254 253 255 254 255 256 259 260 262 263 265 268 268 271 280 280 279 276 277 276 277
280 278 277 272 268 264 263 261 259 257 254 254 254 255 255 255 257 258 259 260 266 266 267 268 270 279 279 278 276 276 275 275
280 277 272 269 265 263 259 258 258 257 255 255 255 255 254 256 256 258 262 265 265 267 266 267 268 277 278 277 275 275 274 275
277 272 270 265 264 263 259 259 258 258 258 257 257 257 256 257 258 259 262 267 269 268 267 267 268 274 278 277 274 273 273 273
272 271 269 265 265 262 261 261 261 261 260 259 259 260 260 262 264 264 264 265 262 266 267 267 268 269 277 278 274 273 272 271
272 268 264 265 266 263 263 262 262 263 263 262 262 266 266 264 266 266 266 266 264 265 266 268 269 272 276 276 275 275 272 270
269 265 264 266 267 266 263 263 263 263 262 261 263 266 267 266 266 265 266 266 266 267 266 267 269 270 275 274 274 274 272 271
267 266 264 266 268 267 264 264 263 262 262 263 263 264 264 267 267 265 264 263 266 266 265 266 267 271 273 271 270 272 270 268
268 267 265 266 266 265 265 264 262 262 263 264 264 263 264 265 264 266 266 267 263 262 264 261 265 272 274 272 270 269 269 262
268 267 265 266 264 264 264 263 263 262 263 264 263 262 263 262 261 270 271 272 272 273 271 269 273 275 275 273 272 270 269 257
267 267 265 264 264 263 263 263 263 264 263 263 263 262 260 259 259 257 262 269 270 271 271 272 272 273 273 272 269 269 263 255
267 265 265 264 263 262 262 263 263 262 263 263 262 261 259 259 258 257 255 254 256 264 268 270 272 272 271 270 264 259 259 253
265 264 264 264 262 261 262 262 261 262 262 261 260 259 259 258 257 255 254 253 251 251 261 261 268 269 268 267 252 250 251 252
Wind_Speed
12 12 9 9 7 7 6 6 5 4 4 4 5 5 6 7 9 10 9 9 10 10 10 10 10 11 11 9 10 11 9 8
11 10 10 9 8 7 6 6 4 4 4 4 5 7 7 8 8 9 10 10 10 11 10 10 11 11 10 11 12 13 11 11
13 12 11 10 9 8 6 5 4 5 4 6 7 8 8 9 9 10 10 10 11 11 10 10 9 10 11 11 12 13 14 13
13 13 12 11 9 8 6 6 5 5 4 5 7 7 7 7 9 9 9 9 11 11 11 11 10 9 10 12 12 12 12 13
14 13 12 11 10 8 7 5 5 6 5 6 7 6 6 6 6 6 7 7 9 10 9 9 9 9 11 13 12 11 11 12
17 15 14 12 10 8 7 6 5 6 6 4 5 5 4 5 6 5 6 6 6 8 9 9 8 9 11 11 10 11 12 10
17 17 17 16 12 9 7 6 7 6 5 2 5 4 4 4 6 5 6 7 6 8 8 9 8 17 18 15 10 11 11 11
22 19 17 16 15 12 9 7 7 6 4 3 4 4 4 4 4 5 5 5 7 7 8 9 10 19 19 19 9 9 11 12
16 16 15 13 12 12 9 7 7 6 4 4 4 3 4 4 4 4 3 4 6 7 9 8 8 20 20 19 9 8 10 11
17 18 15 16 15 14 9 8 7 6 5 4 4 3 2 4 4 3 3 4 3 5 8 10 10 23 20 15 9 10 10 10
18 16 17 14 16 16 11 9 8 7 6 5 4 3 2 1 3 2 2 5 5 6 6 7 10 20 21 17 7 9 8 9
18 18 18 17 17 14 12 11 8 8 6 5 4 3 2 1 1 2 3 4 4 5 6 6 8 11 22 23 8 7 7 8
15 14 15 16 17 15 13 10 10 9 7 6 4 3 2 4 1 3 2 3 3 4 6 6 8 14 17 24 22 18 8 8
16 16 13 13 15 17 12 14 12 10 7 6 5 4 4 4 3 2 2 2 3 4 5 7 8 7 15 21 21 19 10 10
17 17 16 13 12 12 16 14 12 11 9 7 6 4 2 3 3 2 1 2 2 2 3 5 7 6 8 9 9 13 11 13
16 17 17 15 12 14 14 14 12 10 9 7 5 5 3 2 2 1 2 3 2 2 1 1 6 9 17 16 10 10 12 8
14 16 16 14 13 13 14 15 14 11 7 7 6 4 3 3 1 2 3 6 7 9 5 0 11 16 18 20 19 20 16 5
15 15 16 14 14 13 14 14 13 12 9 7 6 5 5 3 3 2 4 3 7 8 8 10 10 14 15 17 15 19 14 5
15 15 15 15 14 13 14 13 11 9 10 8 7 6 5 4 4 3 2 0 3 6 6 9 10 12 13 14 10 7 8 4
14 14 14 15 14 12 13 14 12 9 7 7 6 5 5 4 3 2 2 1 2 3 4 6 10 10 11 12 3 2 3 3
Wind_Direction
162 155 152 149 145 136 137 121 112 86 54 53 38 29 21 7 355 350 337 337 332 330 330 331 334 340 336 344 344 342 348 351
160 155 150 140 140 141 133 125 106 84 67 59 46 37 22 10 356 350 340 345 340 334 332 335 337 341 355 351 351 353 349 355
157 151 155 149 150 139 137 124 111 87 78 60 49 39 22 10 356 354 346 347 341 338 338 339 339 335 351 347 352 355 357 356
158 165 161 158 149 146 141 130 108 94 85 68 54 37 21 2 358 350 341 342 345 342 343 342 337 331 347 358 353 357 358 357
167 168 165 157 152 146 131 122 118 100 82 68 56 35 15 357 345 334 332 342 346 335 332 334 326 347 353 2 353 357 1 360
173 168 164 155 153 142 132 131 126 108 89 63 63 37 9 359 339 336 341 344 340 336 340 340 342 354 2 8 350 351 357 350
177 168 168 166 153 148 144 135 125 116 114 106 71 38 355 346 343 347 342 344 345 350 341 348 347 351 10 18 359 353 348 348
182 175 167 164 155 154 151 138 126 122 126 113 82 47 347 335 356 347 351 342 347 356 351 344 340 3 13 15 358 1 355 349
174 164 158 146 137 134 142 138 128 133 147 121 98 59 358 11 1 340 345 346 355 357 355 349 343 358 9 14 358 357 358 350
169 156 142 146 142 135 138 135 135 151 159 143 131 103 34 22 347 326 348 8 4 6 0 355 347 353 6 19 359 352 358 348
150 143 142 146 141 140 147 149 161 162 168 152 157 153 112 337 340 310 324 37 22 8 360 346 347 343 6 13 1 345 351 351
147 156 153 148 145 142 148 165 161 154 148 147 163 166 194 77 336 25 2 18 17 14 349 343 343 327 0 4 8 346 351 348
142 141 150 151 143 146 161 148 146 144 150 150 162 163 133 99 52 56 28 13 10 21 357 346 339 335 354 7 2 352 0 347
143 141 148 155 153 152 152 145 150 144 154 153 167 161 149 123 92 66 38 41 30 27 6 341 338 324 5 11 4 357 5 347
144 150 151 158 154 143 147 149 146 145 159 167 153 140 124 123 134 122 29 359 22 16 8 342 334 339 16 17 354 4 5 353
157 155 159 155 141 143 146 145 146 152 163 158 150 151 150 141 171 163 223 180 226 253 224 340 337 3 17 17 6 13 9 357
157 152 152 150 142 149 148 154 154 156 162 162 154 152 146 134 53 44 69 63 45 25 31 25 358 14 19 26 21 26 22 12
157 148 153 148 146 156 157 158 159 160 159 153 152 145 143 127 134 112 338 41 48 29 34 21 12 18 19 33 37 37 35 35
149 147 153 153 160 165 159 160 157 151 154 158 156 159 151 162 155 145 131 115 318 353 30 20 18 20 20 31 42 25 24 21
142 148 154 160 166 164 161 161 154 152 158 161 154 159 152 131 118 119 116 221 269 334 343 356 8 21 25 42 87 65 357 352